This is the latest recevied weather packets stored in our database for station/object DB0WUN-13. If no packets are shown the sender has not sent any weather packets the latest 10 day(s).
| Time | Temp. | Humidity | Pressure | Rain* | Wind** | Luminosity | Snow |
|---|---|---|---|---|---|---|---|
| 1776943009 | 15.56° C | 27% | 1023.9 hPa | 0 mm | - | 125 W/m² | - |
| 1776942954 | 15.56° C | 27% | 1023.9 hPa | 0 mm | - | 125 W/m² | - |
| 1776942884 | 15.56° C | 30% | 1024 hPa | 0 mm | - | 121 W/m² | - |
| 1776942836 | 15.56° C | 30% | 1023.9 hPa | 0 mm | - | 891 W/m² | - |
| 1776942797 | 15° C | 31% | 1023.8 hPa | 0 mm | - | 891 W/m² | - |
| 1776942757 | 15° C | 30% | 1023.9 hPa | 0 mm | - | 886 W/m² | - |
| 1776942720 | 15° C | 32% | 1023.9 hPa | 0 mm | - | 895 W/m² | - |
| 1776942541 | 15° C | 34% | 1023.9 hPa | 0 mm | - | 893 W/m² | - |
| 1776942493 | 14.44° C | 30% | 1023.9 hPa | 0 mm | - | 896 W/m² | - |
| 1776942448 | 14.44° C | 30% | 1024 hPa | 0 mm | - | 896 W/m² | - |
| 1776942414 | 14.44° C | 28% | 1024 hPa | 0 mm | - | 896 W/m² | - |
| 1776942366 | 14.44° C | 31% | 1024 hPa | 0 mm | - | 900 W/m² | - |
| 1776942178 | 14.44° C | 30% | 1024 hPa | 0 mm | - | 896 W/m² | - |
| 1776942111 | 14.44° C | 29% | 1024.1 hPa | 0 mm | - | 895 W/m² | - |
| 1776942053 | 14.44° C | 31% | 1024 hPa | 0 mm | - | 895 W/m² | - |
| 1776941994 | 14.44° C | 30% | 1024.1 hPa | 0 mm | - | 895 W/m² | - |
| 1776941937 | 14.44° C | 30% | 1024.1 hPa | 0 mm | - | 891 W/m² | - |
| 1776941738 | 14.44° C | 31% | 1024.1 hPa | 0 mm | - | 888 W/m² | - |
| 1776941675 | 15° C | 32% | 1024.1 hPa | 0 mm | - | 889 W/m² | - |
| 1776941612 | 14.44° C | 29% | 1024.1 hPa | 0 mm | - | 891 W/m² | - |
| 1776941550 | 15° C | 24% | 1024.1 hPa | 0 mm | - | 895 W/m² | - |
| 1776941499 | 15° C | 25% | 1024.1 hPa | 0 mm | - | 893 W/m² | - |
| 1776941436 | 15° C | 27% | 1024.2 hPa | 0 mm | - | 893 W/m² | - |
| 1776941367 | 15° C | 27% | 1024.2 hPa | 0 mm | - | 891 W/m² | - |
| 1776941305 | 15° C | 29% | 1024.3 hPa | 0 mm | - | 884 W/m² | - |
* Rain latest hour (hover to see other rain measurements)
** Current wind speed in m/s (hover to see current wind gust speed)